Regional Weather Roundup
Issued by NWS

Home | Current Version | Previous Version | Text Only | Print | Product List | Glossary On
Versions: 1 2 3 4 5 6 7 8 9 10 11 12 13 14 15 16 17 18 19 20 21 22 23 24 25 26 27
000
ASUS44 KBMX 231310
RWRAL

ALABAMA REGIONAL WEATHER ROUNDUP
NATIONAL WEATHER SERVICE BIRMINGHAM AL
800 AM CDT WED AUG 23 2017

NOTE: "FAIR" INDICATES FEW OR NO CLOUDS BELOW 12,000 FEET
WITH NO SIGNIFICANT WEATHER AND/OR OBSTRUCTIONS TO VISIBILITY.

THE REMARK "TC" DENOTES TEMPERATURE IN DEGREES CELSIUS.

ALZ001>011-014-016>018-020-231400-
NORTH ALABAMA

CITY           SKY/WX    TMP DP  RH WIND       PRES   REMARKS
MUSCLE SHOALS  PTSUNNY   74  70  87 CALM      30.04S
HUNTSVILLE     PTSUNNY   75  72  90 N7        30.02S
DECATUR        CLOUDY    73  72  96 N6        30.03R
HALEYVILLE     CLOUDY    71  70  96 N6        30.06R
GADSDEN        MOSUNNY   75  70  84 CALM      30.00S
$$

ALZ012-013-022-023-030>036-040>044-231400-
WEST CENTRAL ALABAMA

CITY           SKY/WX    TMP DP  RH WIND       PRES   REMARKS
TUSCALOOSA     SUNNY     77  73  87 N7        29.99S
DEMOPOLIS        N/A     77  74  88 CALM      29.99S
$$

ALZ015-024>026-033>036-041>044-231400-
CENTRAL ALABAMA

CITY           SKY/WX    TMP DP  RH WIND       PRES   REMARKS
BIRMINGHAM     PTSUNNY   76  71  85 N3        30.02F
MONTGOMERY     PTSUNNY   80  74  81 VRB3      29.99S
SHELBY CO ARPT SUNNY     78  75  90 CALM      30.00S
MAXWELL AFB    DRIZZLE   79  77  94 CALM      29.98S
GREENVILLE     PTSUNNY   78  73  84 W3        30.00R
SELMA          FAIR      79  75  89 SW3       29.99R
PRATTVILLE     FAIR      76  76  98 CALM      29.98S
BESSEMER       FAIR      75  72  90 N3        30.01S
TALLADEGA      FAIR     N/A N/A N/A MISG      30.00S
PELL CITY      SUNNY     75  75 100 CALM      30.00R
MARION         FAIR      78  76  94 W3        29.99R
SYLACAUGA      FAIR      76  76 100 CALM      30.00S
$$

ALZ019-021-028-029-037-038-045>048-231400-
EAST CENTRAL ALABAMA

CITY           SKY/WX    TMP DP  RH WIND       PRES   REMARKS
ANNISTON       SUNNY     75  72  90 S3        29.99F
ALEXANDER CITY SUNNY     76  74  93 CALM      30.00S
AUBURN         SUNNY     78  74  87 W5        30.01F
$$

ALZ051>064-231400-
SOUTHWEST ALABAMA

CITY           SKY/WX    TMP DP  RH WIND       PRES   REMARKS
MOBILE         PTSUNNY   78  75  90 CALM      30.01R
BROOKLEY FIELD MOSUNNY   80  78  94 CALM      30.01R
EVERGREEN      SUNNY     79  75  87 CALM      30.01S
$$

ALZ049-050-065>069-231400-
SOUTHEAST ALABAMA

CITY           SKY/WX    TMP DP  RH WIND       PRES   REMARKS
DOTHAN         SUNNY     80  76  87 W6        30.03S
OZARK          SUNNY     78  76  96 W3        29.99F
TROY           PTSUNNY   76  76 100 S3        30.00F
EUFAULA        FAIR      82  77  84 VRB3      29.98F HX  90
$$




USA.gov is the U.S. government's official web portal to all federal, state and local government web resources and services.